Simultaneous Nadir Overpasses (SNOs) Predictions

Prediction of SNOs between METOP-B and TERRA Satellite Orbit:

Table of predicted SNOs for the next 14.0 days since TLE Epoch: 12/3/2022
Index Date (METOP-B) Time (METOP-B) Lat,Lon (METOP-B) SZA (METOP-B ) Date (TERRA) Time (TERRA) Lat,Lon (TERRA) SZA (TERRA ) Distance(km) Time Diff (sec)
1 12/05/2022 17:04:46 -81.00, 140.59 74.70 12/05/2022 17:05:07 -81.00, 140.57 74.70 0.42 21
2 12/05/2022 17:55:25 81.03, -51.45 105.39 12/05/2022 17:54:28 81.03, -51.38 105.37 1.27 57
3 12/08/2022 09:16:27 -81.00,-102.33 74.43 12/08/2022 09:16:48 -81.01,-102.27 74.41 1.15 21
4 12/08/2022 10:07:06 81.03, 65.63 105.66 12/08/2022 10:06:09 81.04, 65.78 105.66 2.91 57
5 12/11/2022 01:28:07 -81.00, 14.72 74.21 12/11/2022 01:28:28 -81.01, 14.79 74.19 1.40 21
6 12/11/2022 02:18:45 81.04,-176.97 105.92 12/11/2022 02:17:49 81.04,-177.16 105.88 3.31 56
7 12/13/2022 17:39:48 -81.00, 131.73 74.05 12/13/2022 17:40:09 -81.00, 131.74 74.04 0.33 21
8 12/13/2022 18:30:27 81.02, -60.34 106.03 12/13/2022 18:29:30 81.03, -60.20 106.03 2.57 57
9 12/16/2022 09:51:29 -80.99,-111.30 73.95 12/16/2022 09:51:50 -80.98,-111.40 73.96 2.08 21



Historial Predications of SNOs between METOP-B and TERRA
